Regional Weather Roundup
Issued by NWS

Home | Current Version | Previous Version | Graphics & Text | Print | Product List | Glossary Off
Versions: 1 2 3 4 5 6 7 8 9 10 11 12 13 14 15 16 17 18 19 20 21 22 23 24 25 26 27 28 29 30 31 32 33 34 35 36 37 38 39 40 41 42 43 44 45 46 47 48 49 50

000
ASUS43 KMPX 220901
RWRMN
WEATHER ROUNDUP FOR MINNESOTA
NATIONAL WEATHER SERVICE TWIN CITIES/CHANHASSEN MN
400 AM CDT FRI MAY 22 2015


NOTE: "FAIR" INDICATES FEW OR NO CLOUDS BELOW 12,000 FEET WITH NO
SIGNIFICANT WEATHER AND/OR OBSTRUCTIONS TO VISIBILITY. N/A MEANS
CURRENT SKY AND/OR WEATHER CONDITIONS ARE NOT AVAILABLE.

MNZ060>063-068>070-221000-
   Twin Cities Metro

CITY           SKY/WX    TMP DP  RH WIND       PRES   REMARKS
TWIN CITIES    CLEAR     52  36  54 CALM      30.14R
ST PAUL        CLEAR     51  37  58 NW5       30.15R
CRYSTAL        CLEAR     44  37  76 CALM      30.14R
BLAINE         CLEAR     45  37  76 CALM      30.15R
LAKEVILLE      CLEAR     45  37  76 CALM      30.14R
EDEN PRAIRIE   FAIR      49  38  65 N5        30.13R
SOUTH ST PAUL  CLEAR     52  35  53 CALM      30.14R
LAKE ELMO      FAIR      43  36  75 CALM      30.15R
$$
MNZ001>005-007-008-013>017-022>024-027-028-221000-
   Northwest Minnesota

CITY           SKY/WX    TMP DP  RH WIND       PRES   REMARKS
BEMIDJI        CLEAR     36  33  87 CALM      30.15R
HALLOCK        CLEAR     43  39  87 SE5       30.14S
ROSEAU         CLEAR     41  36  81 CALM      30.14S
WARROAD        CLEAR     37  36  93 CALM      30.14S
THIEF RVR FALL CLEAR     43  34  70 CALM      30.16R
CROOKSTON      CLEAR     45  34  65 CALM      30.16S
FOSSTON        CLEAR     36  30  80 CALM      30.15S
DETROIT LAKES  FAIR      45  43  93 CALM      30.17R
MOORHEAD       CLEAR     46  37  71 CALM      30.16S
PARK RAPIDS    CLEAR     40  35  83 CALM      30.15R
MAHNOMEN       FAIR      42  38  88 S5        30.15R
$$
MNZ006-009>011-018-025>026-221000-
   North Central Minnesota

CITY           SKY/WX    TMP DP  RH WIND       PRES   REMARKS
BAUDETTE       CLEAR     37  35  92 CALM      30.14R
FLAG ISLAND    CLEAR     46  39  76 NW5       30.12S
INTL FALLS     CLEAR     31  29  92 CALM      30.13S
WASKISH        CLEAR     37  37 100 CALM      30.14R
BIG FORK       CLEAR     32  30  93 CALM      30.15R
LONGVILLE      CLEAR     36  34  93 CALM      30.15S
GRAND RAPIDS   CLEAR     36  30  80 CALM      30.15R
CRANE LAKE     CLEAR     28  27  93 CALM      30.16R
ORR            CLEAR     32  28  86 CALM      30.12R
COOK           CLEAR     30  28  93 CALM      30.15R
WALKER         FAIR      36  35  96 CALM      30.15R
$$
MNZ012-019>021-037-221000-
   Northeast Minnesota

CITY           SKY/WX    TMP DP  RH WIND       PRES   REMARKS
DULUTH         CLEAR     37  31  78 W3        30.14R
ELY            CLEAR     30  27  86 CALM      30.14R
HIBBING        CLEAR     30  27  88 CALM      30.15R
EVELETH        CLEAR     32  32 100 CALM      30.15R
DULUTH HARBOR  CLEAR     46  37  71 CALM      30.16R
TWO HARBORS    CLEAR     39  34  81 CALM      30.13R
SILVER BAY     CLEAR     34  28  80 CALM      30.13R
GRAND MARAIS     N/A     33  28  81 N5        30.16R WCI  29
G MARAIS ARPRT CLEAR     28  21  74 CALM      30.14R
$$
MNZ029>031-032-039>041-046>048-054>057-064-221000-
   West Central Minnesota

CITY           SKY/WX    TMP DP  RH WIND       PRES   REMARKS
FERGUS FALLS   CLEAR     48  37  66 NE5       30.17R
WHEATON        CLEAR     45  37  76 SW5       30.18S
MORRIS         CLEAR     45  37  76 CALM      30.15S
ALEXANDRIA     CLEAR     44  39  82 CALM      30.16S
ELBOW LAKE     FAIR      47  42  84 CALM      30.16R
WADENA         CLEAR     39  36  87 CALM      30.16R
GLENWOOD       CLEAR     50  37  62 N5        30.16S
APPLETON       CLEAR     45  39  81 W3        30.16R
BENSON         CLEAR     43  39  87 CALM      30.16R
ORTONVILLE     CLEAR     45  37  76 NW3       30.16S
MADISON        CLEAR     43  36  75 W6        30.16S
WILLMAR        FAIR      48  41  76 CALM      30.17R
$$
MNZ033>034-036-042>043-049>051-058-059-221000-
   Central Minnesota

CITY           SKY/WX    TMP DP  RH WIND       PRES   REMARKS
ST CLOUD       CLEAR     42  40  92 N3        30.15R
SAUK CENTRE    FAIR      42  38  87 CALM      30.16S
PAYNESVILLE    CLEAR     37  36  95 CALM      30.16S
AITKIN           N/A     36  30  80 CALM      30.14R HAZE
PINE RIVER     CLEAR     36  36 100 CALM      30.19R
BRAINERD       CLEAR     37  36  96 CALM      30.16R
STAPLES        CLEAR     39  37  93 CALM      30.16S
LONG PRAIRIE   FAIR      41  37  87 CALM      30.17R
LITTLE FALLS   CLEAR     37  36  93 CALM      30.16S
LITCHFIELD     CLEAR     46  45  93 CALM      30.16S
BUFFALO        CLEAR     44  38  82 N3        30.16S
MAPLE LAKE     CLEAR     42  40  92 N3        30.16S
$$
MNZ037-044-045-052-053-221000-
   East Central Minnesota

CITY           SKY/WX    TMP DP  RH WIND       PRES   REMARKS
PRINCETON      CLEAR     39  36  87 CALM      30.15S
MORA           CLEAR     37  32  81 CALM      30.16S
CAMBRIDGE      CLEAR     41  32  70 CALM      30.13S
RUSH CITY      CLEAR     39  34  82 CALM      30.14S
MOOSE LAKE     CLEAR     34  34 100 CALM      30.13R
HINCKLEY       FAIR      36  36 100 CALM      30.15R
CLOQUET        CLEAR     36  28  75 NW5       30.14R
MCGREGOR       CLEAR     37  34  87 CALM      30.15S
$$
MNZ071>073-080-081-089-090-097-098-221000-
   Southwest Minnesota

CITY           SKY/WX    TMP DP  RH WIND       PRES   REMARKS
MONTEVIDEO     CLEAR     46  36  66 CALM      30.17R
GRANITE FALLS  CLEAR     43  35  73 CALM      30.18R
CANBY          CLEAR     42  36  80 W5        30.17S
MARSHALL       CLEAR     46  32  57 W7        30.16R
REDWOOD FALLS  CLEAR     49  37  63 NW3       30.15R
OLIVIA         CLEAR     45  34  65 N3        30.15R
WINDOM         CLEAR     46  34  61 CALM      30.17R
WORTHINGTON    CLEAR     45  30  57 SW5       30.19R
JACKSON        CLEAR     46  32  57 W3        30.17R
TRACY          CLEAR     51  34  53 W3        30.17R
SLAYTON        CLEAR     46  34  64 CALM      30.19R
$$
MNZ065>067-074>077-082>085-091>093-221000-
   South Central Minnesota

CITY           SKY/WX    TMP DP  RH WIND       PRES   REMARKS
MANKATO        CLEAR     50  34  53 N5        30.15R
NEW ULM        CLEAR     45  34  65 CALM      30.15R
ST JAMES       CLEAR     45  34  65 NW5       30.16R
FAIRMONT       CLEAR     50  30  46 NW6       30.15R
GLENCOE        CLEAR     47  41  79 N3        30.15R
FARIBAULT      CLEAR     43  39  87 CALM      30.14S
OWATONNA       CLEAR     43  37  81 CALM      30.14R
WASECA         CLEAR     43  34  70 N5        30.15R
ALBERT LEA     CLEAR     45  37  76 CALM      30.14R
$$
MNZ078>079-086>088-094>096-221000-
   Southeast Minnesota

CITY           SKY/WX    TMP DP  RH WIND       PRES   REMARKS
ROCHESTER      CLEAR     48  33  56 NW7       30.13R
RED WING       CLEAR     43  37  81 CALM      30.12R
STANTON        CLEAR     42  37  81 CALM      30.13R
DODGE CENTER   CLEAR     52  34  50 NW6       30.13R
WINONA         CLEAR     43  41  93 CALM      30.12R
AUSTIN         CLEAR     45  39  81 CALM      30.13R
PRESTON        CLEAR     48  33  55 NW6       30.12S
$$
ABBREVIATIONS USED IN REMARKS
   TC - TEMPERATURES IN CELSIUS
  WCI - WIND CHILL INDEX
   HX - HEAT INDEX
  VSB - VISIBILITY
$$


USA.gov is the U.S. government's official web portal to all federal, state and local government web resources and services.